Year,Month,Day,Hour,Minute,Value (Times are PST for windspeed in km/hr)
2009,09,26,00,00,0.20
2009,09,26,00,01,1.60
2009,09,26,00,02,1.50
2009,09,26,00,03,0.00
2009,09,26,00,04,1.50
2009,09,26,00,05,0.60
2009,09,26,00,06,0.30
2009,09,26,00,07,0.00
2009,09,26,00,08,1.40
2009,09,26,00,09,3.50
2009,09,26,00,10,2.70
2009,09,26,00,11,1.10
2009,09,26,00,12,3.60
2009,09,26,00,13,4.50
2009,09,26,00,14,4.40
2009,09,26,00,15,0.80
2009,09,26,00,16,2.10
2009,09,26,00,17,1.50
2009,09,26,00,18,1.80
2009,09,26,00,19,1.20
2009,09,26,00,20,1.80
2009,09,26,00,21,2.10
2009,09,26,00,22,0.80
2009,09,26,00,23,1.80
2009,09,26,00,24,0.80
2009,09,26,00,25,3.20
2009,09,26,00,26,2.30
2009,09,26,00,27,0.80
2009,09,26,00,28,4.00
2009,09,26,00,29,1.90
2009,09,26,00,30,2.10
2009,09,26,00,31,4.00
2009,09,26,00,32,1.00
2009,09,26,00,33,0.90
2009,09,26,00,34,1.00
2009,09,26,00,35,0.80
2009,09,26,00,36,0.20
2009,09,26,00,37,0.40
2009,09,26,00,38,0.00
2009,09,26,00,39,0.00
2009,09,26,00,40,0.00
2009,09,26,00,41,0.00
2009,09,26,00,42,0.00
2009,09,26,00,43,0.00
2009,09,26,00,44,0.00
2009,09,26,00,45,0.00
2009,09,26,00,46,0.00
2009,09,26,00,47,0.00
2009,09,26,00,48,1.50
2009,09,26,00,49,0.40
2009,09,26,00,50,1.80
2009,09,26,00,51,0.30
2009,09,26,00,52,1.00
2009,09,26,00,53,2.20
2009,09,26,00,54,0.70
2009,09,26,00,55,0.40
2009,09,26,00,56,0.20
2009,09,26,00,57,1.10
2009,09,26,00,58,1.70
2009,09,26,00,59,0.80
2009,09,26,01,00,3.60
2009,09,26,01,01,1.90
2009,09,26,01,02,2.70
2009,09,26,01,03,3.70
2009,09,26,01,04,2.70
2009,09,26,01,05,1.70
2009,09,26,01,06,0.90
2009,09,26,01,07,1.50
2009,09,26,01,08,4.00
2009,09,26,01,09,4.70
2009,09,26,01,10,2.70
2009,09,26,01,11,1.40
2009,09,26,01,12,1.30
2009,09,26,01,13,1.30
2009,09,26,01,14,2.00
2009,09,26,01,15,0.10
2009,09,26,01,16,0.00
2009,09,26,01,17,2.20
2009,09,26,01,18,0.40
2009,09,26,01,19,0.20
2009,09,26,01,20,0.10
2009,09,26,01,21,0.40
2009,09,26,01,22,1.30
2009,09,26,01,23,4.70
2009,09,26,01,24,2.30
2009,09,26,01,25,1.10
2009,09,26,01,26,1.90
2009,09,26,01,27,2.30
2009,09,26,01,28,0.80
2009,09,26,01,29,0.00
2009,09,26,01,30,0.00
2009,09,26,01,31,0.90
2009,09,26,01,32,0.40
2009,09,26,01,33,1.10
2009,09,26,01,34,0.50
2009,09,26,01,35,0.80
2009,09,26,01,36,1.00
2009,09,26,01,37,0.10
2009,09,26,01,38,0.00
2009,09,26,01,39,0.20
2009,09,26,01,40,1.60
2009,09,26,01,41,0.70
2009,09,26,01,42,3.80
2009,09,26,01,43,3.70
2009,09,26,01,44,1.60
2009,09,26,01,45,2.10
2009,09,26,01,46,1.90
2009,09,26,01,47,2.40
2009,09,26,01,48,3.40
2009,09,26,01,49,0.60
2009,09,26,01,50,3.70
2009,09,26,01,51,2.80
2009,09,26,01,52,1.20
2009,09,26,01,53,0.90
2009,09,26,01,54,3.00
2009,09,26,01,55,4.00
2009,09,26,01,56,2.50
2009,09,26,01,57,3.10
2009,09,26,01,58,2.60
2009,09,26,01,59,0.70
2009,09,26,02,00,4.10
2009,09,26,02,01,3.60
2009,09,26,02,02,5.00
2009,09,26,02,03,2.60
2009,09,26,02,04,1.30
2009,09,26,02,05,0.80
2009,09,26,02,06,1.80
2009,09,26,02,07,5.20
2009,09,26,02,08,5.60
2009,09,26,02,09,1.80
2009,09,26,02,10,5.10
2009,09,26,02,11,4.60
2009,09,26,02,12,2.20
2009,09,26,02,13,5.20
2009,09,26,02,14,3.10
2009,09,26,02,15,3.00
2009,09,26,02,16,7.40
2009,09,26,02,17,3.50
2009,09,26,02,18,0.60
2009,09,26,02,19,2.00
2009,09,26,02,20,2.60
2009,09,26,02,21,4.90
2009,09,26,02,22,5.70
2009,09,26,02,23,6.90
2009,09,26,02,24,4.70
2009,09,26,02,25,8.30
2009,09,26,02,26,6.80
2009,09,26,02,27,6.60
2009,09,26,02,28,4.30
2009,09,26,02,29,5.90
2009,09,26,02,30,9.70
2009,09,26,02,31,6.80
2009,09,26,02,32,3.50
2009,09,26,02,33,6.20
2009,09,26,02,34,4.60
2009,09,26,02,35,2.80
2009,09,26,02,36,10.50
2009,09,26,02,37,8.90
2009,09,26,02,38,10.00
2009,09,26,02,39,9.00
2009,09,26,02,40,12.70
2009,09,26,02,41,11.40
2009,09,26,02,42,8.50
2009,09,26,02,43,5.50
2009,09,26,02,44,5.30
2009,09,26,02,45,0.60
2009,09,26,02,46,8.20
2009,09,26,02,47,7.70
2009,09,26,02,48,3.50
2009,09,26,02,49,9.90
2009,09,26,02,50,2.20
2009,09,26,02,51,3.30
2009,09,26,02,52,6.00
2009,09,26,02,53,6.50
2009,09,26,02,54,7.10
2009,09,26,02,55,5.20
2009,09,26,02,56,2.30
2009,09,26,02,57,5.90
2009,09,26,02,58,8.40
2009,09,26,02,59,5.00
2009,09,26,03,00,7.20
2009,09,26,03,01,6.00
2009,09,26,03,02,6.00
2009,09,26,03,03,1.00
2009,09,26,03,04,4.00
2009,09,26,03,05,2.60
2009,09,26,03,06,11.20
2009,09,26,03,07,8.10
2009,09,26,03,08,7.80
2009,09,26,03,09,1.90
2009,09,26,03,10,3.70
2009,09,26,03,11,3.90
2009,09,26,03,12,4.80
2009,09,26,03,13,11.70
2009,09,26,03,14,15.00
2009,09,26,03,15,13.10
2009,09,26,03,16,11.20
2009,09,26,03,17,11.80
2009,09,26,03,18,6.90
2009,09,26,03,19,6.70
2009,09,26,03,20,7.30
2009,09,26,03,21,9.70
2009,09,26,03,22,7.40
2009,09,26,03,23,11.30
2009,09,26,03,24,9.20
2009,09,26,03,25,6.70
2009,09,26,03,26,7.50
2009,09,26,03,27,3.40
2009,09,26,03,28,10.50
2009,09,26,03,29,9.30
2009,09,26,03,30,10.30
2009,09,26,03,31,6.00
2009,09,26,03,32,10.70
2009,09,26,03,33,9.00
2009,09,26,03,34,14.70
2009,09,26,03,35,7.20
2009,09,26,03,36,5.90
2009,09,26,03,37,12.60
2009,09,26,03,38,15.40
2009,09,26,03,39,6.80
2009,09,26,03,40,14.90
2009,09,26,03,41,7.80
2009,09,26,03,42,7.50
2009,09,26,03,43,11.30
2009,09,26,03,44,16.20
2009,09,26,03,45,7.80
2009,09,26,03,46,12.20
2009,09,26,03,47,16.30
2009,09,26,03,48,13.40
2009,09,26,03,49,6.40
2009,09,26,03,50,15.80
2009,09,26,03,51,14.90
2009,09,26,03,52,8.70
2009,09,26,03,53,6.70
2009,09,26,03,54,9.90
2009,09,26,03,55,11.00
2009,09,26,03,56,10.60
2009,09,26,03,57,8.40
2009,09,26,03,58,5.60
2009,09,26,03,59,4.10
2009,09,26,04,00,6.40
2009,09,26,04,01,7.30
2009,09,26,04,02,8.30
2009,09,26,04,03,8.50
2009,09,26,04,04,8.30
2009,09,26,04,05,10.80
2009,09,26,04,06,3.90
2009,09,26,04,07,7.00
2009,09,26,04,08,8.60
2009,09,26,04,09,5.40
2009,09,26,04,10,10.80
2009,09,26,04,11,10.40
2009,09,26,04,12,6.40
2009,09,26,04,13,6.60
2009,09,26,04,14,4.80
2009,09,26,04,15,4.90
2009,09,26,04,16,6.40
2009,09,26,04,17,7.60
2009,09,26,04,18,7.90
2009,09,26,04,19,9.00
2009,09,26,04,20,13.20
2009,09,26,04,21,5.80
2009,09,26,04,22,6.00
2009,09,26,04,23,6.00
2009,09,26,04,24,5.00
2009,09,26,04,25,3.90
2009,09,26,04,26,7.80
2009,09,26,04,27,6.80
2009,09,26,04,28,6.00
2009,09,26,04,29,7.60
2009,09,26,04,30,10.20
2009,09,26,04,31,8.60
2009,09,26,04,32,6.20
2009,09,26,04,33,9.10
2009,09,26,04,34,10.50
2009,09,26,04,35,8.00
2009,09,26,04,36,12.10
2009,09,26,04,37,4.30
2009,09,26,04,38,4.30
2009,09,26,04,39,6.10
2009,09,26,04,40,9.90
2009,09,26,04,41,9.60
2009,09,26,04,42,10.50
2009,09,26,04,43,6.50
2009,09,26,04,44,2.70
2009,09,26,04,45,10.80
2009,09,26,04,46,7.80
2009,09,26,04,47,9.90
2009,09,26,04,48,6.90
2009,09,26,04,49,8.90
2009,09,26,04,50,9.60
2009,09,26,04,51,9.70
2009,09,26,04,52,10.70
2009,09,26,04,53,5.30
2009,09,26,04,54,6.40
2009,09,26,04,55,10.30
2009,09,26,04,56,8.20
2009,09,26,04,57,8.40
2009,09,26,04,58,9.10
2009,09,26,04,59,11.00
2009,09,26,05,00,5.50
2009,09,26,05,01,7.20
2009,09,26,05,02,5.20
2009,09,26,05,03,8.80
2009,09,26,05,04,3.70
2009,09,26,05,05,3.70
2009,09,26,05,06,15.50
2009,09,26,05,07,8.20
2009,09,26,05,08,11.60
2009,09,26,05,09,10.50
2009,09,26,05,10,12.50
2009,09,26,05,11,13.00
2009,09,26,05,12,12.60
2009,09,26,05,13,10.50
2009,09,26,05,14,3.50
2009,09,26,05,15,8.40
2009,09,26,05,16,5.00
2009,09,26,05,17,4.30
2009,09,26,05,18,1.60
2009,09,26,05,19,7.60
2009,09,26,05,20,8.40
2009,09,26,05,21,10.60
2009,09,26,05,22,14.20
2009,09,26,05,23,9.80
2009,09,26,05,24,8.00
2009,09,26,05,25,6.20
2009,09,26,05,26,12.50
2009,09,26,05,27,3.50
2009,09,26,05,28,6.80
2009,09,26,05,29,9.30
2009,09,26,05,30,11.50
2009,09,26,05,31,3.00
2009,09,26,05,32,10.50
2009,09,26,05,33,6.00
2009,09,26,05,34,8.90
2009,09,26,05,35,9.70
2009,09,26,05,36,10.20
2009,09,26,05,37,8.20
2009,09,26,05,38,11.20
2009,09,26,05,39,9.60
2009,09,26,05,40,10.20
2009,09,26,05,41,11.80
2009,09,26,05,42,6.30
2009,09,26,05,43,10.10
2009,09,26,05,44,11.40
2009,09,26,05,45,12.40
2009,09,26,05,46,7.60
2009,09,26,05,47,5.40
2009,09,26,05,48,10.50
2009,09,26,05,49,8.00
2009,09,26,05,50,8.70
2009,09,26,05,51,3.00
2009,09,26,05,52,11.20
2009,09,26,05,53,5.20
2009,09,26,05,54,6.70
2009,09,26,05,55,3.90
2009,09,26,05,56,5.80
2009,09,26,05,57,2.40
2009,09,26,05,58,7.20
2009,09,26,05,59,6.90
2009,09,26,06,00,9.90
2009,09,26,06,01,8.00
2009,09,26,06,02,10.60
2009,09,26,06,03,4.40
2009,09,26,06,04,4.60
2009,09,26,06,05,9.10
2009,09,26,06,06,10.20
2009,09,26,06,07,6.10
2009,09,26,06,08,8.00
2009,09,26,06,09,3.90
2009,09,26,06,10,6.60
2009,09,26,06,11,9.70
2009,09,26,06,12,11.50
2009,09,26,06,13,6.30
2009,09,26,06,14,0.80
2009,09,26,06,15,5.80
2009,09,26,06,16,8.90
2009,09,26,06,17,6.00
2009,09,26,06,18,8.10
2009,09,26,06,19,6.80
2009,09,26,06,20,8.20
2009,09,26,06,21,8.40
2009,09,26,06,22,6.00
2009,09,26,06,23,3.10
2009,09,26,06,24,8.50
2009,09,26,06,25,7.00
2009,09,26,06,26,6.60
2009,09,26,06,27,5.50
2009,09,26,06,28,4.10
2009,09,26,06,29,4.60
2009,09,26,06,30,4.80
2009,09,26,06,31,5.70
2009,09,26,06,32,1.50
2009,09,26,06,33,3.20
2009,09,26,06,34,1.40
2009,09,26,06,35,6.40
2009,09,26,06,36,9.50
2009,09,26,06,37,10.20
2009,09,26,06,38,3.20
2009,09,26,06,39,2.60
2009,09,26,06,40,7.00
2009,09,26,06,41,6.40
2009,09,26,06,42,3.70
2009,09,26,06,43,2.60
2009,09,26,06,44,7.30
2009,09,26,06,45,6.60
2009,09,26,06,46,15.10
2009,09,26,06,47,3.30
2009,09,26,06,48,8.00
2009,09,26,06,49,10.90
2009,09,26,06,50,10.80
2009,09,26,06,51,6.40
2009,09,26,06,52,7.60
2009,09,26,06,53,9.40
2009,09,26,06,54,12.00
2009,09,26,06,55,12.80
2009,09,26,06,56,5.00
2009,09,26,06,57,15.00
2009,09,26,06,58,9.40
2009,09,26,06,59,9.00
2009,09,26,07,00,8.80
2009,09,26,07,01,7.10
2009,09,26,07,02,8.90
2009,09,26,07,03,6.50
2009,09,26,07,04,7.60
2009,09,26,07,05,6.30
2009,09,26,07,06,8.30
2009,09,26,07,07,10.60
2009,09,26,07,08,10.10
2009,09,26,07,09,9.10
2009,09,26,07,10,8.40
2009,09,26,07,11,7.60
2009,09,26,07,12,10.30
2009,09,26,07,13,6.00
2009,09,26,07,14,7.90
2009,09,26,07,15,11.10
2009,09,26,07,16,7.10
2009,09,26,07,17,7.30
2009,09,26,07,18,12.10
2009,09,26,07,19,5.90
2009,09,26,07,20,6.90
2009,09,26,07,21,8.20
2009,09,26,07,22,6.40
2009,09,26,07,23,1.70
2009,09,26,07,24,6.80
2009,09,26,07,25,6.80
2009,09,26,07,26,4.90
2009,09,26,07,27,7.50
2009,09,26,07,28,9.40
2009,09,26,07,29,9.20
2009,09,26,07,30,3.50
2009,09,26,07,31,9.40
2009,09,26,07,32,4.70
2009,09,26,07,33,10.20
2009,09,26,07,34,10.80
2009,09,26,07,35,5.60
2009,09,26,07,36,3.40
2009,09,26,07,37,9.20
2009,09,26,07,38,3.90
2009,09,26,07,39,7.40
2009,09,26,07,40,10.50
2009,09,26,07,41,11.80
2009,09,26,07,42,5.40
2009,09,26,07,43,10.60
2009,09,26,07,44,5.70
2009,09,26,07,45,8.30
2009,09,26,07,46,9.40
2009,09,26,07,47,4.00
2009,09,26,07,48,3.90
2009,09,26,07,49,5.60
2009,09,26,07,50,9.70
2009,09,26,07,51,7.80
2009,09,26,07,52,6.40
2009,09,26,07,53,9.40
2009,09,26,07,54,11.40
2009,09,26,07,55,8.00
2009,09,26,07,56,8.60
2009,09,26,07,57,7.00
2009,09,26,07,58,14.70
2009,09,26,07,59,11.00
2009,09,26,08,00,13.30
2009,09,26,08,01,11.20
2009,09,26,08,02,13.30
2009,09,26,08,03,4.40
2009,09,26,08,04,10.50
2009,09,26,08,05,8.60
2009,09,26,08,06,13.20
2009,09,26,08,07,11.60
2009,09,26,08,08,10.60
2009,09,26,08,09,4.00
2009,09,26,08,10,12.60
2009,09,26,08,11,9.60
2009,09,26,08,12,9.90
2009,09,26,08,13,6.40
2009,09,26,08,14,8.10
2009,09,26,08,15,4.10
2009,09,26,08,16,3.40
2009,09,26,08,17,8.30
2009,09,26,08,18,5.90
2009,09,26,08,19,5.20
2009,09,26,08,20,6.60
2009,09,26,08,21,9.80
2009,09,26,08,22,14.10
2009,09,26,08,23,8.10
2009,09,26,08,24,9.30
2009,09,26,08,25,3.20
2009,09,26,08,26,9.50
2009,09,26,08,27,2.60
2009,09,26,08,28,8.00
2009,09,26,08,29,10.50
2009,09,26,08,30,9.30
2009,09,26,08,31,8.10
2009,09,26,08,32,8.20
2009,09,26,08,33,8.40
2009,09,26,08,34,13.40
2009,09,26,08,35,14.50
2009,09,26,08,36,15.20
2009,09,26,08,37,9.30
2009,09,26,08,38,8.30
2009,09,26,08,39,8.20
2009,09,26,08,40,8.20
2009,09,26,08,41,13.00
2009,09,26,08,42,12.70
2009,09,26,08,43,6.90
2009,09,26,08,44,8.50
2009,09,26,08,45,14.30
2009,09,26,08,46,13.40
2009,09,26,08,47,14.00
2009,09,26,08,48,10.50
2009,09,26,08,49,13.30
2009,09,26,08,50,12.80
2009,09,26,08,51,7.40
2009,09,26,08,52,7.10
2009,09,26,08,53,12.50
2009,09,26,08,54,14.80
2009,09,26,08,55,5.20
2009,09,26,08,56,12.40
2009,09,26,08,57,10.20
2009,09,26,08,58,13.80
2009,09,26,08,59,8.60
2009,09,26,09,00,7.30
2009,09,26,09,01,9.20
2009,09,26,09,02,5.60
2009,09,26,09,03,3.80
2009,09,26,09,04,10.50
2009,09,26,09,05,6.50
2009,09,26,09,06,8.30
2009,09,26,09,07,13.60
2009,09,26,09,08,4.20
2009,09,26,09,09,6.50
2009,09,26,09,10,7.10
2009,09,26,09,11,6.80
2009,09,26,09,12,7.40
2009,09,26,09,13,10.20
2009,09,26,09,14,7.00
2009,09,26,09,15,7.90
2009,09,26,09,16,7.20
2009,09,26,09,17,8.10
2009,09,26,09,18,7.40
2009,09,26,09,19,8.20
2009,09,26,09,20,5.30
2009,09,26,09,21,12.60
2009,09,26,09,22,11.30
2009,09,26,09,23,13.40
2009,09,26,09,24,12.10
2009,09,26,09,25,9.00
2009,09,26,09,26,6.80
2009,09,26,09,27,7.90
2009,09,26,09,28,11.30
2009,09,26,09,29,13.40
2009,09,26,09,30,16.70
2009,09,26,09,31,13.30
2009,09,26,09,32,9.30
2009,09,26,09,33,13.10
2009,09,26,09,34,8.30
2009,09,26,09,35,7.60
2009,09,26,09,36,10.50
2009,09,26,09,37,10.30
2009,09,26,09,38,6.20
2009,09,26,09,39,10.40
2009,09,26,09,40,6.00
2009,09,26,09,41,15.00
2009,09,26,09,42,13.20
2009,09,26,09,43,16.00
2009,09,26,09,44,7.10
2009,09,26,09,45,16.70
2009,09,26,09,46,15.00
2009,09,26,09,47,11.40
2009,09,26,09,48,15.70
2009,09,26,09,49,14.40
2009,09,26,09,50,16.80
2009,09,26,09,51,11.00
2009,09,26,09,52,5.10
2009,09,26,09,53,4.40
2009,09,26,09,54,12.90
2009,09,26,09,55,12.70
2009,09,26,09,56,11.20
2009,09,26,09,57,6.00
2009,09,26,09,58,6.00
2009,09,26,09,59,10.10
2009,09,26,10,00,13.20
2009,09,26,10,01,8.20
2009,09,26,10,02,6.60
2009,09,26,10,03,8.60
2009,09,26,10,04,5.60
2009,09,26,10,05,8.60
2009,09,26,10,06,5.40
2009,09,26,10,07,8.80
2009,09,26,10,08,6.90
2009,09,26,10,09,7.90
2009,09,26,10,10,6.50
2009,09,26,10,11,7.70
2009,09,26,10,12,12.10
2009,09,26,10,13,10.10
2009,09,26,10,14,8.40
2009,09,26,10,15,7.90
2009,09,26,10,16,20.00
2009,09,26,10,17,9.30
2009,09,26,10,18,10.60
2009,09,26,10,19,7.60
2009,09,26,10,20,8.90
2009,09,26,10,21,8.90
2009,09,26,10,22,9.20
2009,09,26,10,23,14.10
2009,09,26,10,24,8.60
2009,09,26,10,25,11.40
2009,09,26,10,26,11.30
2009,09,26,10,27,12.60
2009,09,26,10,28,15.30
2009,09,26,10,29,8.50
2009,09,26,10,30,12.60
2009,09,26,10,31,15.20
2009,09,26,10,32,16.30
2009,09,26,10,33,16.60
2009,09,26,10,34,20.40
2009,09,26,10,35,16.70
2009,09,26,10,36,16.30
2009,09,26,10,37,8.70
2009,09,26,10,38,15.30
2009,09,26,10,39,18.70
2009,09,26,10,40,11.40
2009,09,26,10,41,13.50
2009,09,26,10,42,10.90
2009,09,26,10,43,20.40
2009,09,26,10,44,19.70
2009,09,26,10,45,7.60
2009,09,26,10,46,11.10
2009,09,26,10,47,9.40
2009,09,26,10,48,9.10
2009,09,26,10,49,11.90
2009,09,26,10,50,17.00
2009,09,26,10,51,12.70
2009,09,26,10,52,16.90
2009,09,26,10,53,12.90
2009,09,26,10,54,15.70
2009,09,26,10,55,18.10
2009,09,26,10,56,17.50
2009,09,26,10,57,22.70
2009,09,26,10,58,22.50
2009,09,26,10,59,8.90
2009,09,26,11,00,16.20
2009,09,26,11,01,8.50
2009,09,26,11,02,12.50
2009,09,26,11,03,18.20
2009,09,26,11,04,16.30
2009,09,26,11,05,20.10
2009,09,26,11,06,21.40
2009,09,26,11,07,22.70
2009,09,26,11,08,14.80
2009,09,26,11,09,14.10
2009,09,26,11,10,15.20
2009,09,26,11,11,11.80
2009,09,26,11,12,12.70
2009,09,26,11,13,11.10
2009,09,26,11,14,5.30
2009,09,26,11,15,11.60
2009,09,26,11,16,7.90
2009,09,26,11,17,6.90
2009,09,26,11,18,10.00
2009,09,26,11,19,8.30
2009,09,26,11,20,14.00
2009,09,26,11,21,12.30
2009,09,26,11,22,8.10
2009,09,26,11,23,15.20
2009,09,26,11,24,9.00
2009,09,26,11,25,16.70
2009,09,26,11,26,8.30
2009,09,26,11,27,5.70
2009,09,26,11,28,13.30
2009,09,26,11,29,14.80
2009,09,26,11,30,8.20
2009,09,26,11,31,16.90
2009,09,26,11,32,9.10
2009,09,26,11,33,12.20
2009,09,26,11,34,12.40
2009,09,26,11,35,17.10
2009,09,26,11,36,20.40
2009,09,26,11,37,16.30
2009,09,26,11,38,11.30
2009,09,26,11,39,19.20
2009,09,26,11,40,12.90
2009,09,26,11,41,11.20
2009,09,26,11,42,16.80
2009,09,26,11,43,13.50
2009,09,26,11,44,17.40
2009,09,26,11,45,11.00
2009,09,26,11,46,13.30
2009,09,26,11,47,21.20
2009,09,26,11,48,14.20
2009,09,26,11,49,23.50
2009,09,26,11,50,20.00
2009,09,26,11,51,10.50
2009,09,26,11,52,14.20
2009,09,26,11,53,6.00
2009,09,26,11,54,13.60
2009,09,26,11,55,20.20
2009,09,26,11,56,8.40
2009,09,26,11,57,12.00
2009,09,26,11,58,15.50
2009,09,26,11,59,9.70
2009,09,26,12,00,12.80
2009,09,26,12,01,11.30
2009,09,26,12,02,14.30
2009,09,26,12,03,19.70
2009,09,26,12,04,9.90
2009,09,26,12,05,11.20
2009,09,26,12,06,17.10
2009,09,26,12,07,9.20
2009,09,26,12,08,11.30
2009,09,26,12,09,16.30
2009,09,26,12,10,18.60
2009,09,26,12,11,12.00
2009,09,26,12,12,9.30
2009,09,26,12,13,14.10
2009,09,26,12,14,16.70
2009,09,26,12,15,23.70
2009,09,26,12,16,19.70
2009,09,26,12,17,15.50
2009,09,26,12,18,18.20
2009,09,26,12,19,20.20
2009,09,26,12,20,14.40
2009,09,26,12,21,21.80
2009,09,26,12,22,14.10
2009,09,26,12,23,14.20
2009,09,26,12,24,14.30
2009,09,26,12,25,14.20
2009,09,26,12,26,25.80
2009,09,26,12,27,18.80
2009,09,26,12,28,13.90
2009,09,26,12,29,6.90
2009,09,26,12,30,7.60
2009,09,26,12,31,16.70
2009,09,26,12,32,16.40
2009,09,26,12,33,17.90
2009,09,26,12,34,15.80
2009,09,26,12,35,16.40
2009,09,26,12,36,12.70
2009,09,26,12,37,16.50
2009,09,26,12,38,9.80
2009,09,26,12,39,15.80
2009,09,26,12,40,18.50
2009,09,26,12,41,18.50
2009,09,26,12,42,18.80
2009,09,26,12,43,12.90
2009,09,26,12,44,13.40
2009,09,26,12,45,22.40
2009,09,26,12,46,8.50
2009,09,26,12,47,14.40
2009,09,26,12,48,15.40
2009,09,26,12,49,9.70
2009,09,26,12,50,7.90
2009,09,26,12,51,14.70
2009,09,26,12,52,6.70
2009,09,26,12,53,9.00
2009,09,26,12,54,15.10
2009,09,26,12,55,15.00
2009,09,26,12,56,11.50
2009,09,26,12,57,7.00
2009,09,26,12,58,5.50
2009,09,26,12,59,13.80
2009,09,26,13,00,15.50
2009,09,26,13,01,19.30
2009,09,26,13,02,20.60
2009,09,26,13,03,18.80
2009,09,26,13,04,14.50
2009,09,26,13,05,18.20
2009,09,26,13,06,13.40
2009,09,26,13,07,15.10
2009,09,26,13,08,11.60
2009,09,26,13,09,15.70
2009,09,26,13,10,12.00
2009,09,26,13,11,9.50
2009,09,26,13,12,8.90
2009,09,26,13,13,15.80
2009,09,26,13,14,16.20
2009,09,26,13,15,16.20
2009,09,26,13,16,18.50
2009,09,26,13,17,10.80
2009,09,26,13,18,11.90
2009,09,26,13,19,17.30
2009,09,26,13,20,13.20
2009,09,26,13,21,10.80
2009,09,26,13,22,11.40
2009,09,26,13,23,17.50
2009,09,26,13,24,14.90
2009,09,26,13,25,16.30
2009,09,26,13,26,18.50
2009,09,26,13,27,8.80
2009,09,26,13,28,15.20
2009,09,26,13,29,17.50
2009,09,26,13,30,10.30
2009,09,26,13,31,11.70
2009,09,26,13,32,5.10
2009,09,26,13,33,15.50
2009,09,26,13,34,19.20
2009,09,26,13,35,12.60
2009,09,26,13,36,7.80
2009,09,26,13,37,12.60
2009,09,26,13,38,14.20
2009,09,26,13,39,6.60
2009,09,26,13,40,15.50
2009,09,26,13,41,19.20
2009,09,26,13,42,19.90
2009,09,26,13,43,20.20
2009,09,26,13,44,14.80
2009,09,26,13,45,14.50
2009,09,26,13,46,18.00
2009,09,26,13,47,14.20
2009,09,26,13,48,8.80
2009,09,26,13,49,11.20
2009,09,26,13,50,10.90
2009,09,26,13,51,9.40
2009,09,26,13,52,16.30
2009,09,26,13,53,11.80
2009,09,26,13,54,11.40
2009,09,26,13,55,18.80
2009,09,26,13,56,12.30
2009,09,26,13,57,10.50
2009,09,26,13,58,8.80
2009,09,26,13,59,13.20
2009,09,26,14,00,20.90
2009,09,26,14,01,19.90
2009,09,26,14,02,15.10
2009,09,26,14,03,11.30
2009,09,26,14,04,12.60
2009,09,26,14,05,9.20
2009,09,26,14,06,18.30
2009,09,26,14,07,9.00
2009,09,26,14,08,15.20
2009,09,26,14,09,17.10
2009,09,26,14,10,8.50
2009,09,26,14,11,6.30
2009,09,26,14,12,6.70
2009,09,26,14,13,11.60
2009,09,26,14,14,9.90
2009,09,26,14,15,11.30
2009,09,26,14,16,4.30
2009,09,26,14,17,11.30
2009,09,26,14,18,10.10
2009,09,26,14,19,6.40
2009,09,26,14,20,8.70
2009,09,26,14,21,14.30
2009,09,26,14,22,17.00
2009,09,26,14,23,21.10
2009,09,26,14,24,19.40
2009,09,26,14,25,14.10
2009,09,26,14,26,13.40
2009,09,26,14,27,14.60
2009,09,26,14,28,8.30
2009,09,26,14,29,10.80
2009,09,26,14,30,11.10
2009,09,26,14,31,17.10
2009,09,26,14,32,13.00
2009,09,26,14,33,15.70
2009,09,26,14,34,15.00
2009,09,26,14,35,10.70
2009,09,26,14,36,11.20
2009,09,26,14,37,7.20
2009,09,26,14,38,11.50
2009,09,26,14,39,7.90
2009,09,26,14,40,7.80
2009,09,26,14,41,10.90
2009,09,26,14,42,8.30
2009,09,26,14,43,16.70
2009,09,26,14,44,12.60
2009,09,26,14,45,11.00
2009,09,26,14,46,8.90
2009,09,26,14,47,9.40
2009,09,26,14,48,14.70
2009,09,26,14,49,11.70
2009,09,26,14,50,8.20
2009,09,26,14,51,21.00
2009,09,26,14,52,9.70
2009,09,26,14,53,10.10
2009,09,26,14,54,16.70
2009,09,26,14,55,13.30
2009,09,26,14,56,13.80
2009,09,26,14,57,12.20
2009,09,26,14,58,11.30
2009,09,26,14,59,12.90
2009,09,26,15,00,9.70
2009,09,26,15,01,13.40
2009,09,26,15,02,12.20
2009,09,26,15,03,15.90
2009,09,26,15,04,15.10
2009,09,26,15,05,17.10
2009,09,26,15,06,12.50
2009,09,26,15,07,15.60
2009,09,26,15,08,15.30
2009,09,26,15,09,11.70
2009,09,26,15,10,5.10
2009,09,26,15,11,4.80
2009,09,26,15,12,8.50
2009,09,26,15,13,12.30
2009,09,26,15,14,16.70
2009,09,26,15,15,18.10
2009,09,26,15,16,10.50
2009,09,26,15,17,8.60
2009,09,26,15,18,11.30
2009,09,26,15,19,15.20
2009,09,26,15,20,9.00
2009,09,26,15,21,7.30
2009,09,26,15,22,8.50
2009,09,26,15,23,9.70
2009,09,26,15,24,13.10
2009,09,26,15,25,14.30
2009,09,26,15,26,18.00
2009,09,26,15,27,17.50
2009,09,26,15,28,11.70
2009,09,26,15,29,13.40
2009,09,26,15,30,6.60
2009,09,26,15,31,14.60
2009,09,26,15,32,15.80
2009,09,26,15,33,8.90
2009,09,26,15,34,11.30
2009,09,26,15,35,12.80
2009,09,26,15,36,16.40
2009,09,26,15,37,10.10
2009,09,26,15,38,15.60
2009,09,26,15,39,16.20
2009,09,26,15,40,19.90
2009,09,26,15,41,18.70
2009,09,26,15,42,18.30
2009,09,26,15,43,20.80
2009,09,26,15,44,14.10
2009,09,26,15,45,15.90
2009,09,26,15,46,13.00
2009,09,26,15,47,14.90
2009,09,26,15,48,19.90
2009,09,26,15,49,18.90
2009,09,26,15,50,21.90
2009,09,26,15,51,15.90
2009,09,26,15,52,6.80
2009,09,26,15,53,11.90
2009,09,26,15,54,13.00
2009,09,26,15,55,14.70
2009,09,26,15,56,21.30
2009,09,26,15,57,18.10
2009,09,26,15,58,13.70
2009,09,26,15,59,15.80
2009,09,26,16,00,19.10
2009,09,26,16,01,14.90
2009,09,26,16,02,13.20
2009,09,26,16,03,16.60
2009,09,26,16,04,12.20
2009,09,26,16,05,9.30
2009,09,26,16,06,17.00
2009,09,26,16,07,18.20
2009,09,26,16,08,18.70
2009,09,26,16,09,13.60
2009,09,26,16,10,17.90
2009,09,26,16,11,10.90
2009,09,26,16,12,14.60
2009,09,26,16,13,15.30
2009,09,26,16,14,13.40
2009,09,26,16,15,11.80
2009,09,26,16,16,17.50
2009,09,26,16,17,12.30
2009,09,26,16,18,13.60
2009,09,26,16,19,8.50
2009,09,26,16,20,15.10
2009,09,26,16,21,17.40
2009,09,26,16,22,14.10
2009,09,26,16,23,14.00
2009,09,26,16,24,11.20
2009,09,26,16,25,19.20
2009,09,26,16,26,10.00
2009,09,26,16,27,20.00
2009,09,26,16,28,11.40
2009,09,26,16,29,15.10
2009,09,26,16,30,11.30
2009,09,26,16,31,19.20
2009,09,26,16,32,17.70
2009,09,26,16,33,10.60
2009,09,26,16,34,11.30
2009,09,26,16,35,14.40
2009,09,26,16,36,14.80
2009,09,26,16,37,14.40
2009,09,26,16,38,14.60
2009,09,26,16,39,18.50
2009,09,26,16,40,20.40
2009,09,26,16,41,12.50
2009,09,26,16,42,18.10
2009,09,26,16,43,15.60
2009,09,26,16,44,12.20
2009,09,26,16,45,12.90
2009,09,26,16,46,6.50
2009,09,26,16,47,12.40
2009,09,26,16,48,10.20
2009,09,26,16,49,15.70
2009,09,26,16,50,6.30
2009,09,26,16,51,9.60
2009,09,26,16,52,7.20
2009,09,26,16,53,14.50
2009,09,26,16,54,14.20
2009,09,26,16,55,18.80
2009,09,26,16,56,9.20
2009,09,26,16,57,18.30
2009,09,26,16,58,16.40
2009,09,26,16,59,12.30
2009,09,26,17,00,11.30
2009,09,26,17,01,10.60
2009,09,26,17,02,10.90
2009,09,26,17,03,12.40
2009,09,26,17,04,8.40
2009,09,26,17,05,12.90
2009,09,26,17,06,7.10
2009,09,26,17,07,9.70
2009,09,26,17,08,12.80
2009,09,26,17,09,20.10
2009,09,26,17,10,9.30
2009,09,26,17,11,15.30
2009,09,26,17,12,8.30
2009,09,26,17,13,13.80
2009,09,26,17,14,13.20
2009,09,26,17,15,11.60
2009,09,26,17,16,6.50
2009,09,26,17,17,6.50
2009,09,26,17,18,16.00
2009,09,26,17,19,7.50
2009,09,26,17,20,17.40
2009,09,26,17,21,12.20
2009,09,26,17,22,4.50
2009,09,26,17,23,8.70
2009,09,26,17,24,8.30
2009,09,26,17,25,11.50
2009,09,26,17,26,11.70
2009,09,26,17,27,10.30
2009,09,26,17,28,5.20
2009,09,26,17,29,4.10
2009,09,26,17,30,6.80
2009,09,26,17,31,7.50
2009,09,26,17,32,8.00
2009,09,26,17,33,10.30
2009,09,26,17,34,5.60
2009,09,26,17,35,10.60
2009,09,26,17,36,15.10
2009,09,26,17,37,10.90
2009,09,26,17,38,10.40
2009,09,26,17,39,8.40
2009,09,26,17,40,9.10
2009,09,26,17,41,13.60
2009,09,26,17,42,5.80
2009,09,26,17,43,8.70
2009,09,26,17,44,11.50